Location: ??????????
(54.7560°N, 39.1389°E)
Time: 07:39:50
(UTC+00:00)

Meteor 1-14 Rocket - Pass Details

Date: 19 May 2025
Orbit: 833 x 917 km, 81.3° (Epoch: 15 June)

Event Time Altitude Azimuth Distance (km) Brightness Sun altitude
Rises 19:28:35 0° 344° (NNW) 3,406 9.3 -11.6°
Reaches altitude 10° 19:31:00 10° 342° (NNW) 2,474 8.1 -11.7°
Maximum altitude 19:36:33 68° 261° (W) 920 4.5 -12.1°
Enters shadow 19:41:27 14° 181° (S) 2,232 5.8 -12.4°
